FW1671 Weather Reports


Display with metric or nautical units.
time (UTC)temp
F
wind
direction
speed
MPH
gust
MPH
rain 1hr
in
rain 24hr
in
rain mn
in
humidity
%
barometer
mb
20260506212001 89 244 3.0 15.0 0.00 0.00 0.00 44 1010.5
20260506211501 89 175 8.0 15.0 0.00 0.00 0.00 44 1010.5
20260506211002 89 188 3.0 15.0 0.00 0.00 0.00 45 1010.5
20260506210502 88 217 7.0 15.0 0.00 0.00 0.00 44 1010.5
20260506210003 88 207 3.0 10.0 0.00 0.00 0.00 45 1010.6
20260506205501 88 173 4.0 10.0 0.00 0.00 0.00 45 1010.5
20260506205001 88 250 4.0 13.0 0.00 0.00 0.00 45 1010.6
20260506204501 89 184 2.0 11.0 0.00 0.00 0.00 46 1010.5
20260506204000 88 198 4.0 11.0 0.00 0.00 0.00 46 1010.6
20260506203502 87 184 5.0 13.0 0.00 0.00 0.00 47 1010.8
20260506203001 87 244 4.0 13.0 0.00 0.00 0.00 47 1011.0
20260506202503 87 205 2.0 13.0 0.00 0.00 0.00 48 1011.0
20260506202002 86 209 3.0 13.0 0.00 0.00 0.00 48 1011.2
20260506201502 87 183 5.0 11.0 0.00 0.00 0.00 48 1011.3
20260506201002 87 209 4.0 11.0 0.00 0.00 0.00 46 1011.4
20260506200501 88 222 2.0 8.0 0.00 0.00 0.00 47 1011.5
20260506200002 87 184 3.0 10.0 0.00 0.00 0.00 47 1011.7
20260506195559 87 190 3.0 14.0 0.00 0.00 0.00 49 1011.8
20260506195102 86 203 4.0 14.0 0.00 0.00 0.00 50 1011.8
20260506194502 86 245 5.0 13.0 0.00 0.00 0.00 51 1011.9
20260506194002 85 254 3.0 11.0 0.00 0.00 0.00 50 1011.9
20260506193501 86 185 3.0 10.0 0.00 0.00 0.00 51 1011.9
20260506193001 85 191 4.0 9.0 0.00 0.00 0.00 51 1011.8
20260506192501 84 153 1.0 9.0 0.00 0.00 0.00 54 1012.1
20260506192001 83 179 4.0 9.0 0.00 0.00 0.00 56 1012.2
20260506191502 82 198 3.0 10.0 0.00 0.00 0.00 56 1012.4
20260506191002 82 182 4.0 11.0 0.00 0.00 0.00 57 1012.2
20260506190501 82 172 5.0 11.0 0.00 0.00 0.00 56 1012.3
20260506190008 81 238 4.0 9.0 0.00 0.00 0.00 56 1012.6
20260506185501 82 262 4.0 10.0 0.00 0.00 0.00 56 1012.9
20260506185001 82 181 5.0 9.0 0.00 0.00 0.00 55 1012.9
20260506184502 82 205 3.0 10.0 0.00 0.00 0.00 58 1013.0
20260506184001 81 226 4.0 12.0 0.00 0.00 0.00 57 1012.9
20260506183501 81 213 4.0 9.0 0.00 0.00 0.00 59 1012.9
20260506183002 80 213 4.0 10.0 0.00 0.00 0.00 60 1012.9
20260506182501 79 200 2.0 7.0 0.00 0.00 0.00 61 1012.9
20260506182003 79 198 2.0 10.0 0.00 0.00 0.00 61 1013.3
20260506181503 79 211 4.0 10.0 0.00 0.00 0.00 61 1013.4
20260506181001 78 188 4.0 9.0 0.00 0.00 0.00 61 1013.3
20260506180502 78 161 4.0 14.0 0.00 0.00 0.00 62 1013.2
20260506180002 78 206 4.0 14.0 0.00 0.00 0.00 62 1013.4
20260506175559 78 259 4.0 9.0 0.00 0.00 0.00 62 1013.6
20260506175059 78 225 2.0 11.0 0.00 0.00 0.00 62 1013.9
20260506174559 78 171 5.0 15.0 0.00 0.00 0.00 61 1013.9
20260506174100 79 214 5.0 15.0 0.00 0.00 0.00 60 1013.7
20260506173600 79 175 6.0 12.0 0.00 0.00 0.00 60 1014.0
20260506173111 79 222 4.0 11.0 0.00 0.00 0.00 62 1014.2
20260506172607 78 171 5.0 12.0 0.00 0.00 0.00 63 1014.2
20260506172059 77 213 2.0 11.0 0.00 0.00 0.00 65 1014.4
20260506171605 77 169 3.0 11.0 0.00 0.00 0.00 64 1014.4
20260506171103 77 185 4.0 8.0 0.00 0.00 0.00 64 1014.5
20260506170603 77 166 4.0 8.0 0.00 0.00 0.00 64 1014.7
20260506170004 76 191 5.0 9.0 0.00 0.00 0.00 65 1014.8
20260506165602 76 205 2.0 12.0 0.00 0.00 0.00 65 1014.7
20260506165100 77 188 3.0 12.0 0.00 0.00 0.00 65 1014.6
20260506164613 77 218 4.0 11.0 0.00 0.00 0.00 64 1014.9
20260506164100 76 148 3.0 10.0 0.00 0.00 0.00 65 1014.9
20260506163559 77 232 5.0 8.0 0.00 0.00 0.00 64 1014.9
20260506163103 77 194 3.0 8.0 0.00 0.00 0.00 64 1015.0
20260506162559 77 227 3.0 8.0 0.00 0.00 0.00 64 1015.0
20260506162103 77 279 3.0 8.0 0.00 0.00 0.00 64 1015.1
20260506161600 77 198 4.0 7.0 0.00 0.00 0.00 65 1015.0
20260506161101 77 227 3.0 8.0 0.00 0.00 0.00 65 1014.9
20260506160559 77 293 2.0 9.0 0.00 0.00 0.00 65 1015.0
20260506160108 76 240 4.0 9.0 0.00 0.00 0.00 65 1014.9
20260506160001 76 194 3.0 9.0 0.00 0.00 0.00 65 1014.8
20260506155602 76 284 4.0 9.0 0.00 0.00 0.00 65 1014.8
20260506155101 76 280 2.0 9.0 0.00 0.00 0.00 65 1014.9
20260506154604 76 228 4.0 9.0 0.00 0.00 0.00 66 1014.7
20260506154103 76 175 0.0 8.0 0.00 0.00 0.00 67 1014.6
20260506153603 75 246 4.0 8.0 0.00 0.00 0.00 67 1014.6
20260506153114 75 238 3.0 8.0 0.00 0.00 0.00 68 1014.7
20260506152559 75 198 1.0 9.0 0.00 0.00 0.00 68 1014.6
20260506152059 74 244 4.0 9.0 0.00 0.00 0.00 68 1014.5
20260506151600 74 215 3.0 6.0 0.00 0.00 0.00 68 1014.5
20260506151502 74 234 2.0 7.0 0.00 0.00 0.00 68 1014.5
20260506151102 74 238 3.0 7.0 0.00 0.00 0.00 68 1014.5
20260506150559 74 211 4.0 9.0 0.00 0.00 0.00 68 1014.4
20260506150103 74 206 3.0 9.0 0.00 0.00 0.00 68 1014.4
20260506150002 74 246 2.0 9.0 0.00 0.00 0.00 68 1014.4
20260506145559 74 242 3.0 8.0 0.00 0.00 0.00 68 1014.4
20260506145103 74 221 4.0 8.0 0.00 0.00 0.00 69 1014.4
20260506144608 73 225 2.0 7.0 0.00 0.00 0.00 70 1014.4
20260506144059 73 194 2.0 7.0 0.00 0.00 0.00 71 1014.4
20260506143600 72 176 3.0 11.0 0.00 0.00 0.00 72 1014.5
20260506143059 72 244 4.0 11.0 0.00 0.00 0.00 71 1014.6
20260506142559 71 195 3.0 8.0 0.00 0.00 0.00 72 1014.7
20260506142503 71 269 3.0 8.0 0.00 0.00 0.00 72 1014.7
20260506142100 71 240 4.0 8.0 0.00 0.00 0.00 72 1014.7
20260506141559 71 313 2.0 7.0 0.00 0.00 0.00 72 1014.7
20260506141059 71 252 1.0 7.0 0.00 0.00 0.00 72 1014.7
20260506141004 71 252 2.0 7.0 0.00 0.00 0.00 72 1014.7
20260506140559 70 279 3.0 7.0 0.00 0.00 0.00 72 1014.6
20260506140106 70 173 2.0 5.0 0.00 0.00 0.00 73 1014.6
20260506140005 70 234 1.0 4.0 0.00 0.00 0.00 73 1014.6
20260506135559 70 186 2.0 5.0 0.00 0.00 0.00 74 1014.6
20260506135059 69 201 3.0 5.0 0.00 0.00 0.00 74 1014.6
20260506134559 69 213 2.0 7.0 0.00 0.00 0.00 75 1014.7
20260506134102 68 247 3.0 7.0 0.00 0.00 0.00 75 1014.7
20260506133559 68 207 1.0 7.0 0.00 0.00 0.00 76 1014.7
20260506133101 68 194 3.0 7.0 0.00 0.00 0.00 76 1014.5
20260506132559 67 160 2.0 6.0 0.00 0.00 0.00 76 1014.4
20260506132059 67 209 2.0 8.0 0.00 0.00 0.00 77 1014.6
20260506131559 67 196 4.0 8.0 0.00 0.00 0.00 77 1014.6
20260506131059 67 228 2.0 5.0 0.00 0.00 0.00 78 1014.6
20260506130559 66 222 2.0 5.0 0.00 0.00 0.00 78 1014.7
20260506130103 66 194 2.0 8.0 0.00 0.00 0.00 78 1014.7
20260506130002 66 202 2.0 8.0 0.00 0.00 0.00 78 1014.6
20260506125559 66 288 3.0 8.0 0.00 0.00 0.00 78 1014.7
20260506125059 66 230 3.0 8.0 0.00 0.00 0.00 79 1014.8
20260506124608 65 279 3.0 7.0 0.00 0.00 0.00 79 1014.6
20260506124059 65 22 3.0 9.0 0.00 0.00 0.00 79 1014.6
20260506123559 65 264 4.0 9.0 0.00 0.00 0.00 80 1014.6
20260506123102 65 227 1.0 7.0 0.00 0.00 0.00 80 1014.5
20260506122600 65 236 3.0 10.0 0.00 0.00 0.00 80 1014.6
20260506122059 65 232 3.0 10.0 0.00 0.00 0.00 80 1014.4
20260506121602 64 192 2.0 7.0 0.00 0.00 0.00 80 1014.2
20260506121101 64 188 2.0 8.0 0.00 0.00 0.00 81 1014.3
20260506120559 64 250 2.0 8.0 0.00 0.00 0.00 81 1014.3
20260506120059 64 242 1.0 8.0 0.00 0.00 0.00 82 1014.3
20260506120005 64 235 1.0 8.0 0.00 0.00 0.00 82 1014.3
20260506115559 63 225 1.0 7.0 0.00 0.00 0.00 83 1014.3
20260506115059 63 240 2.0 5.0 0.00 0.00 0.00 83 1014.2
20260506114609 63 267 0.0 7.0 0.00 0.00 0.00 83 1014.2
20260506114504 63 267 1.0 7.0 0.00 0.00 0.00 84 1014.2
20260506114102 63 230 2.0 6.0 0.00 0.00 0.00 84 1014.1
20260506113559 62 248 2.0 6.0 0.00 0.00 0.00 84 1013.9
20260506113100 62 210 1.0 6.0 0.00 0.00 0.00 85 1013.7
20260506112559 62 198 2.0 5.0 0.00 0.00 0.00 86 1013.5
20260506112502 62 202 1.0 5.0 0.00 0.00 0.00 86 1013.5
20260506112059 62 207 2.0 5.0 0.00 0.00 0.00 86 1013.4
20260506111559 61 196 2.0 4.0 0.00 0.00 0.00 86 1013.4
20260506111059 61 200 0.0 3.0 0.00 0.00 0.00 87 1013.5
20260506110559 61 226 0.0 3.0 0.00 0.00 0.00 87 1013.5
20260506110100 61 174 1.0 4.0 0.00 0.00 0.00 87 1013.6
20260506110003 61 226 0.0 5.0 0.00 0.00 0.00 87 1013.6
20260506105559 61 180 1.0 5.0 0.00 0.00 0.00 87 1013.6
20260506105100 60 202 1.0 5.0 0.00 0.00 0.00 88 1013.5
20260506104606 60 163 0.0 5.0 0.00 0.00 0.00 88 1013.3
20260506104059 60 172 2.0 5.0 0.00 0.00 0.00 88 1013.3
20260506103559 60 192 1.0 6.0 0.00 0.00 0.00 88 1013.4
20260506103059 60 209 1.0 6.0 0.00 0.00 0.00 88 1013.3
20260506102559 60 186 1.0 3.0 0.00 0.00 0.00 88 1013.3
20260506102104 60 191 1.0 3.0 0.00 0.00 0.00 88 1013.4
20260506101559 60 191 0.0 4.0 0.00 0.00 0.00 88 1013.3
20260506101059 60 183 0.0 4.0 0.00 0.00 0.00 88 1013.2
20260506100559 59 231 1.0 3.0 0.00 0.00 0.00 88 1013.3
20260506100059 59 166 0.0 3.0 0.00 0.00 0.00 88 1013.2
20260506100001 59 166 1.0 3.0 0.00 0.00 0.00 88 1013.1
20260506095559 59 213 0.0 3.0 0.00 0.00 0.00 87 1013.2
20260506095100 59 213 1.0 3.0 0.00 0.00 0.00 87 1013.2
20260506094559 59 219 0.0 3.0 0.00 0.00 0.00 86 1013.4
20260506094103 59 219 0.0 3.0 0.00 0.00 0.00 86 1013.6
20260506093559 60 238 0.0 1.0 0.00 0.00 0.00 85 1013.8
20260506093100 60 238 0.0 1.0 0.00 0.00 0.00 85 1013.8
20260506092559 60 238 0.0 1.0 0.00 0.00 0.00 85 1013.7
20260506092059 60 238 0.0 1.0 0.00 0.00 0.00 84 1013.8
20260506091601 60 238 0.0 2.0 0.00 0.00 0.00 84 1013.7
20260506091101 60 238 0.0 2.0 0.00 0.00 0.00 84 1013.7
20260506090602 61 238 0.0 1.0 0.00 0.00 0.00 83 1013.6
20260506090104 61 238 0.0 1.0 0.00 0.00 0.00 83 1013.7
20260506090001 61 238 0.0 1.0 0.00 0.00 0.00 83 1013.6
20260506085559 61 238 0.0 4.0 0.00 0.00 0.00 83 1013.6
20260506085059 61 238 0.0 4.0 0.00 0.00 0.00 83 1013.6
20260506084606 61 188 0.0 4.0 0.00 0.00 0.00 83 1013.7
20260506084100 61 188 1.0 5.0 0.00 0.00 0.00 83 1013.8
20260506083559 61 214 2.0 5.0 0.00 0.00 0.00 83 1013.9
20260506083059 61 173 1.0 3.0 0.00 0.00 0.00 83 1013.7
20260506082559 61 227 1.0 3.0 0.00 0.00 0.00 82 1013.8
20260506082059 61 211 0.0 3.0 0.00 0.00 0.00 82 1013.9
20260506081603 61 208 0.0 2.0 0.00 0.00 0.00 82 1013.9
20260506081059 61 208 0.0 2.0 0.00 0.00 0.00 82 1014.1
20260506080559 61 208 0.0 5.0 0.00 0.00 0.00 82 1014.2
20260506080107 62 170 0.0 4.0 0.00 0.00 0.00 82 1014.1
20260506073059 62 254 0.0 2.0 0.00 0.00 0.00 81 1014.1
20260506072559 62 162 0.0 2.0 0.00 0.00 0.00 80 1014.0
20260506072059 62 166 0.0 3.0 0.00 0.00 0.00 80 1014.0
20260506071606 62 166 1.0 3.0 0.00 0.00 0.00 80 1014.1
20260506071059 62 178 0.0 3.0 0.00 0.00 0.00 80 1014.1
20260506070602 62 196 0.0 3.0 0.00 0.00 0.00 79 1014.0
20260506070104 62 195 1.0 3.0 0.00 0.00 0.00 79 1013.9
20260506062059 63 189 1.0 3.0 0.00 0.00 0.00 77 1014.1
20260506061559 64 215 1.0 3.0 0.00 0.00 0.00 77 1014.0
20260506061059 64 218 0.0 5.0 0.00 0.00 0.00 76 1014.0
20260506060559 64 168 0.0 3.0 0.00 0.00 0.00 76 1014.2
20260506051059 65 196 2.0 5.0 0.00 0.00 0.00 74 1014.5
20260506050559 65 194 1.0 4.0 0.00 0.00 0.00 74 1014.3
20260506050106 65 173 2.0 6.0 0.00 0.00 0.00 74 1014.5
20260506045002 65 179 0.0 4.0 0.00 0.00 0.00 73 1014.6
20260506044500 65 188 1.0 4.0 0.00 0.00 0.00 73 1014.7
20260506044000 65 199 1.0 5.0 0.00 0.00 0.00 73 1014.6
20260506043501 65 198 2.0 5.0 0.00 0.00 0.00 73 1014.7
20260506043002 66 176 0.0 9.0 0.00 0.00 0.00 72 1014.7
20260506042501 66 192 3.0 9.0 0.00 0.00 0.00 72 1014.6
20260506042001 66 170 1.0 7.0 0.00 0.00 0.00 72 1014.6
20260506041500 66 193 2.0 7.0 0.00 0.00 0.00 71 1014.7
20260506041003 66 209 0.0 6.0 0.00 0.00 0.00 71 1014.7
20260506040501 66 179 2.0 8.0 0.00 0.00 0.00 71 1014.7
20260506040007 66 225 1.0 9.0 0.00 0.00 0.00 71 1014.8
20260506035503 66 175 2.0 5.0 0.00 0.00 0.00 70 1014.7
20260506035001 67 183 1.0 5.0 0.00 0.00 0.00 70 1014.7
20260506034503 67 147 1.0 9.0 0.00 0.00 0.00 70 1014.7
20260506034002 67 138 2.0 9.0 0.00 0.00 0.00 69 1014.8
20260506033500 67 184 3.0 7.0 0.00 0.00 0.00 69 1014.8
20260506033000 67 190 0.0 7.0 0.00 0.00 0.00 68 1014.8
20260506032501 67 259 0.0 6.0 0.00 0.00 0.00 68 1014.7
20260506032003 68 155 1.0 6.0 0.00 0.00 0.00 67 1014.7
20260506031502 68 214 1.0 5.0 0.00 0.00 0.00 66 1014.6
20260506031001 68 142 0.0 7.0 0.00 0.00 0.00 66 1014.5
20260506030503 68 111 3.0 7.0 0.00 0.00 0.00 65 1014.5
20260506030015 68 161 1.0 6.0 0.00 0.00 0.00 65 1014.3
20260506025501 69 163 1.0 5.0 0.00 0.00 0.00 64 1014.4
20260506025002 69 184 2.0 9.0 0.00 0.00 0.00 63 1014.4
20260506024504 69 181 2.0 9.0 0.00 0.00 0.00 63 1014.4
20260506024002 69 161 0.0 7.0 0.00 0.00 0.00 62 1014.3
20260506023502 69 115 2.0 7.0 0.00 0.00 0.00 61 1014.5
20260506023000 70 190 2.0 8.0 0.00 0.00 0.00 61 1014.3
20260506022500 70 94 3.0 8.0 0.00 0.00 0.00 60 1014.5
20260506022002 70 161 2.0 10.0 0.00 0.00 0.00 60 1014.5
20260506021501 70 201 3.0 10.0 0.00 0.00 0.00 59 1014.5
20260506021004 71 201 1.0 8.0 0.00 0.00 0.00 59 1014.6
20260506020500 71 196 2.0 9.0 0.00 0.00 0.00 58 1014.6
20260506020003 71 170 0.0 9.0 0.00 0.00 0.00 58 1014.4
20260506015502 71 198 0.0 10.0 0.00 0.00 0.00 57 1014.5
20260506015002 72 325 3.0 10.0 0.00 0.00 0.00 57 1014.3
20260506014501 72 147 5.0 13.0 0.00 0.00 0.00 57 1014.2
20260506014000 72 186 3.0 13.0 0.00 0.00 0.00 57 1014.1
20260506013501 72 163 1.0 10.0 0.00 0.00 0.00 56 1014.0
20260506013001 73 146 2.0 10.0 0.00 0.00 0.00 56 1013.9
20260506012502 73 162 2.0 12.0 0.00 0.00 0.00 56 1013.8
20260506012004 73 156 4.0 13.0 0.00 0.00 0.00 56 1013.8
20260506011501 73 150 4.0 10.0 0.00 0.00 0.00 56 1013.6
20260506011000 74 109 2.0 13.0 0.00 0.00 0.00 55 1013.5
20260506010502 74 161 5.0 13.0 0.00 0.00 0.00 55 1013.4
20260506010010 74 174 3.0 7.0 0.00 0.00 0.00 54 1013.4
20260506005501 74 156 1.0 7.0 0.00 0.00 0.00 53 1013.2
20260506005001 74 164 1.0 6.0 0.00 0.00 0.00 52 1013.1
20260506004503 74 125 1.0 10.0 0.00 0.00 0.00 51 1012.9
20260506004002 74 156 4.0 10.0 0.00 0.00 0.00 50 1012.7
20260506003501 75 136 1.0 4.0 0.00 0.00 0.00 47 1012.7
20260506003001 75 135 1.0 3.0 0.00 0.00 0.00 45 1012.7
20260506002500 75 126 0.0 2.0 0.00 0.00 0.00 47 1012.6
20260506002000 76 126 0.0 2.0 0.00 0.00 0.00 45 1012.5
20260506001502 77 126 0.0 2.0 0.00 0.00 0.00 42 1012.6
20260506001001 77 126 0.0 5.0 0.00 0.00 0.00 41 1012.5
20260506000502 77 162 1.0 5.0 0.00 0.00 0.00 40 1012.5
20260506000003 78 209 0.0 3.0 0.00 0.00 0.00 40 1012.6
20260505235500 78 210 0.0 5.0 0.00 0.00 0.00 40 1012.6
20260505235004 79 209 0.0 6.0 0.00 0.00 0.00 38 1012.6
20260505234501 79 198 0.0 5.0 0.00 0.00 0.00 37 1012.6
20260505234004 80 199 0.0 5.0 0.00 0.00 0.00 37 1012.5
20260505233600 80 173 1.0 7.0 0.00 0.00 0.00 36 1012.5
20260505233503 80 182 1.0 7.0 0.00 0.00 0.00 36 1012.5
20260505233000 81 204 1.0 7.0 0.00 0.00 0.00 36 1012.5
20260505232500 81 161 1.0 7.0 0.00 0.00 0.00 35 1012.5
20260505232003 82 188 1.0 6.0 0.00 0.00 0.00 35 1012.6
20260505231502 82 180 1.0 6.0 0.00 0.00 0.00 35 1012.6
20260505231002 82 225 0.0 6.0 0.00 0.00 0.00 34 1012.6
20260505230500 82 178 2.0 6.0 0.00 0.00 0.00 34 1012.7
20260505230007 82 180 2.0 9.0 0.00 0.00 0.00 34 1012.7
20260505225502 82 176 4.0 9.0 0.00 0.00 0.00 34 1012.8
20260505225101 82 230 3.0 10.0 0.00 0.00 0.00 33 1012.8
20260505224501 83 185 5.0 11.0 0.00 0.00 0.00 32 1012.6
20260505224100 83 205 5.0 11.0 0.00 0.00 0.00 33 1012.7
20260505224004 83 92 3.0 9.0 0.00 0.00 0.00 33 1012.6
20260505223600 83 190 3.0 9.0 0.00 0.00 0.00 33 1012.6
20260505223501 83 201 3.0 7.0 0.00 0.00 0.00 33 1012.5
20260505223111 83 180 3.0 13.0 0.00 0.00 0.00 33 1012.5
20260505222600 84 224 4.0 13.0 0.00 0.00 0.00 32 1012.6
20260505222101 84 156 2.0 17.0 0.00 0.00 0.00 34 1012.6
20260505221603 84 173 3.0 17.0 0.00 0.00 0.00 33 1012.6
20260505221502 84 171 3.0 17.0 0.00 0.00 0.00 33 1012.6
20260505221103 83 154 2.0 7.0 0.00 0.00 0.00 35 1012.5
20260505220604 83 205 3.0 8.0 0.00 0.00 0.00 34 1012.5
20260505220115 82 200 4.0 9.0 0.00 0.00 0.00 34 1012.6
20260505220003 82 179 4.0 9.0 0.00 0.00 0.00 34 1012.6
20260505215600 82 180 3.0 7.0 0.00 0.00 0.00 34 1012.6
20260505215500 82 213 2.0 7.0 0.00 0.00 0.00 34 1012.5
20260505215004 83 205 3.0 8.0 0.00 0.00 0.00 34 1012.6
20260505214601 83 186 4.0 8.0 0.00 0.00 0.00 33 1012.7
20260505214101 83 200 2.0 10.0 0.00 0.00 0.00 35 1012.8
20260505213604 82 175 3.0 10.0 0.00 0.00 0.00 34 1012.8
20260505213102 82 175 4.0 16.0 0.00 0.00 0.00 33 1012.8
20260505212600 83 189 4.0 16.0 0.00 0.00 0.00 33 1012.9